Wind_Speed
13 10 16 18 15 13 16 14 10 8 3 6 12 12 12 10 7 8 10 9 6 5 8 12 14 17 19 20 21 21 22 21 22 25 25 25 26 25 24 23 23 21 19 21
7 16 14 10 7 7 8 13 11 4 4 4 4 11 11 12 9 6 6 8 8 5 5 10 13 17 20 21 22 22 22 20 21 25 25 25 24 26 24 24 23 23 22 22
14 10 11 7 8 10 10 14 11 4 6 1 2 8 11 5 6 5 4 7 6 5 4 4 7 10 13 18 22 25 24 21 19 21 20 22 25 26 22 22 22 21 20 21
9 5 11 12 15 13 9 1 10 11 9 5 3 4 7 9 7 5 4 6 6 5 5 5 5 6 8 9 12 17 23 23 21 19 17 19 20 20 19 17 18 19 18 17
7 9 14 13 14 10 5 7 7 6 5 2 7 5 5 7 8 8 8 7 7 7 7 7 8 8 7 6 6 6 12 18 20 20 18 17 17 18 15 13 13 13 15 17
4 2 6 6 6 5 15 12 10 5 2 6 11 9 8 8 12 10 10 10 10 11 9 10 11 11 10 10 10 9 8 9 11 13 13 12 10 9 11 10 11 13 13 15
5 5 2 7 9 8 9 15 4 5 5 7 4 4 12 4 4 12 15 15 13 13 12 11 13 16 16 15 15 15 13 13 11 8 7 6 5 6 6 6 7 8 8 10
12 8 13 10 7 9 16 15 6 7 5 4 2 8 4 8 5 14 16 17 15 13 12 13 16 18 19 19 19 19 18 18 16 14 12 11 9 7 5 4 3 3 5 7
14 8 3 5 1 12 7 9 3 6 1 2 6 6 4 7 9 16 18 17 16 14 13 13 15 17 18 18 18 18 17 17 15 14 12 10 8 7 5 3 3 5 7 9
5 5 3 2 2 0 6 11 4 3 5 5 6 6 7 13 17 16 19 21 19 16 14 15 16 17 17 17 17 16 15 14 13 12 10 8 6 4 3 3 5 6 8 10
7 2 3 5 10 14 5 6 6 4 3 4 4 6 2 19 21 21 24 25 23 20 17 17 17 17 17 16 16 15 13 12 10 9 8 6 5 4 4 6 7 9 11 12
2 4 5 8 4 3 6 11 12 6 5 4 2 4 4 5 19 26 26 25 23 20 18 18 18 18 17 16 16 14 12 10 8 7 6 5 5 5 6 7 9 11 14 16
9 3 4 2 2 2 7 12 16 16 3 6 5 7 3 6 18 25 26 26 23 21 19 20 20 19 18 16 14 12 11 9 7 6 5 5 5 7 8 11 13 15 17 19
18 4 13 14 17 7 8 15 14 17 8 12 11 12 4 12 17 23 26 27 25 24 23 20 19 20 19 17 14 11 10 8 6 4 3 3 5 8 10 12 15 17 19 21
8 8 12 20 10 6 12 15 17 19 25 16 23 17 12 18 20 31 31 27 27 26 24 23 24 22 19 17 14 12 10 8 5 2 2 4 7 10 13 15 17 19 21 23
4 3 9 2 6 3 2 9 19 22 25 22 23 16 6 21 25 25 28 29 29 29 26 25 25 23 20 18 15 12 10 6 3 1 3 7 11 15 18 20 22 24 26 27
8 6 3 4 5 4 5 21 17 20 25 21 24 26 7 13 22 30 32 34 31 29 28 28 27 24 21 18 15 11 8 4 1 2 6 11 15 18 21 23 25 27 28 30
4 5 2 4 4 8 7 2 22 22 16 22 22 14 15 22 34 36 35 34 30 31 31 31 28 25 21 17 14 10 7 4 2 5 10 14 17 20 23 25 27 28 30 32
5 7 3 6 9 10 14 4 7 11 20 22 22 16 13 19 19 19 24 26 29 34 34 31 27 23 20 17 14 11 6 4 5 9 13 17 20 23 25 27 27 29 31 33
2 4 8 5 7 12 3 8 6 6 17 13 19 13 12 22 12 10 33 35 36 35 32 30 26 22 20 17 12 8 7 7 9 13 16 19 22 25 26 28 30 31 33 34
5 4 15 8 7 7 4 10 13 9 6 3 23 26 28 16 16 22 38 38 34 33 33 29 25 22 19 14 11 10 9 10 13 16 18 21 24 27 29 31 31 32 33 35
8 7 5 4 8 15 13 6 8 1 1 2 11 17 22 18 14 23 36 37 34 35 31 28 25 21 16 13 11 11 13 14 16 18 21 24 26 27 29 31 32 34 35 37
5 3 5 6 3 3 23 2 12 0 3 7 13 16 26 22 22 29 36 37 36 34 31 27 22 17 14 12 12 14 14 16 18 20 22 24 25 28 30 33 34 35 35 37
2 1 2 2 3 2 7 10 5 8 7 8 11 20 24 25 28 31 36 35 32 29 26 22 18 14 12 13 13 14 15 16 18 20 22 25 28 30 32 33 34 36 36 37
2 9 4 5 1 2 8 17 12 10 10 11 13 17 23 27 30 34 33 30 28 25 21 17 14 13 13 13 13 13 14 15 18 21 24 27 29 31 33 35 36 37 36 34
7 5 6 5 10 4 4 14 21 16 15 17 22 25 24 26 33 33 30 27 24 21 18 16 15 14 13 12 12 13 14 17 19 21 23 26 28 30 32 34 35 34 36 36
Wind_Direction
186 188 205 204 215 229 202 208 197 187 111 208 229 248 249 222 233 240 225 223 229 219 219 232 233 234 233 229 224 223 223 224 230 238 240 244 249 254 255 256 258 262 257 261
173 207 200 214 176 207 197 197 187 112 127 222 193 255 242 236 229 233 238 235 236 230 220 242 236 235 238 235 230 225 224 222 224 241 241 244 250 259 263 265 264 264 263 259
200 190 130 139 175 164 195 206 173 217 142 169 273 260 231 177 192 196 212 224 222 212 194 214 222 228 232 233 232 232 226 219 219 238 243 242 242 256 258 263 266 268 266 265
236 140 168 184 189 194 191 96 142 134 173 219 200 263 191 181 185 191 180 188 182 170 154 154 161 187 209 225 231 232 229 224 218 216 222 245 243 245 257 266 268 275 277 274
173 166 175 189 185 197 161 155 135 141 191 264 185 252 228 166 197 182 168 164 154 142 138 129 141 142 149 155 167 188 208 213 217 218 219 235 241 240 245 251 263 271 277 279
102 351 188 183 101 200 140 121 96 107 181 245 221 224 223 180 212 167 167 152 154 138 133 133 130 126 126 123 120 124 143 175 199 211 216 213 239 237 243 253 261 264 264 275
133 160 124 158 103 141 171 162 150 186 201 235 35 214 249 135 163 181 168 159 152 137 129 121 119 119 117 115 113 112 113 117 121 133 158 189 206 217 229 246 254 267 274 274
182 199 182 178 211 178 193 191 168 180 197 175 111 224 227 114 173 161 158 155 149 144 139 134 130 125 119 115 111 110 111 110 109 109 108 107 106 103 96 83 53 359 342 331
194 184 73 177 146 152 174 206 74 106 67 181 193 238 186 162 174 162 160 162 158 150 146 141 135 131 128 125 120 118 117 115 115 114 112 110 106 96 81 57 12 341 327 321
210 123 233 109 143 286 213 148 166 221 166 219 196 244 233 189 183 177 174 175 167 159 153 151 145 139 134 130 128 127 124 122 118 117 115 109 103 91 61 22 358 346 339 335
169 121 132 162 210 178 156 191 216 228 220 219 204 241 216 190 185 182 178 178 172 167 164 159 156 151 146 141 134 131 126 121 120 113 104 90 70 50 23 6 358 349 345 340
126 100 154 190 65 26 265 223 196 202 207 261 34 258 342 196 182 180 176 174 175 172 167 166 162 156 151 146 140 139 132 127 119 108 96 82 60 42 25 9 357 351 345 340
174 153 115 104 236 157 215 212 220 226 62 193 197 246 340 210 170 180 174 174 172 172 169 170 166 162 158 153 149 145 139 133 120 99 80 59 34 16 3 354 345 339 334 329
166 150 201 220 224 149 203 210 210 213 213 218 223 230 161 174 173 175 179 180 178 177 177 172 169 169 166 161 156 147 141 137 124 103 73 30 360 351 345 339 334 331 331 330
183 203 205 232 240 207 206 204 205 212 221 215 233 230 214 191 185 189 185 179 176 179 180 179 177 175 171 167 161 158 154 152 144 124 39 5 351 347 344 338 333 331 329 328
190 196 218 222 238 240 243 220 204 213 226 233 247 247 244 186 197 184 181 179 182 184 182 179 181 179 175 172 170 168 164 158 149 85 13 2 354 348 342 337 332 329 327 326
167 148 126 199 134 125 274 225 216 218 225 222 235 237 151 182 191 188 187 190 187 183 181 185 186 181 178 175 173 169 167 170 183 0 355 348 342 338 335 331 327 324 323 324
128 114 106 127 142 216 244 10 220 218 226 226 243 243 187 187 197 197 198 189 183 182 185 189 185 182 180 178 176 178 189 205 286 321 327 326 326 325 324 323 321 319 318 318
172 167 161 196 210 285 274 191 160 183 239 228 231 231 189 192 189 205 200 193 185 188 192 188 186 183 180 181 187 191 204 241 282 305 312 314 315 317 318 317 316 315 313 312
73 245 217 162 212 219 337 159 164 124 266 215 214 212 161 148 190 193 189 190 193 193 190 184 183 182 186 188 189 207 234 259 282 296 303 309 313 315 315 314 313 311 310 310
163 159 204 187 219 275 145 151 150 171 277 252 200 203 173 188 209 195 192 190 191 184 181 181 184 187 183 190 208 226 248 272 285 294 301 306 310 312 311 310 310 310 311 311
175 160 174 162 202 251 141 119 186 101 65 210 197 193 189 191 188 177 182 179 177 175 178 182 180 181 190 203 220 243 263 276 284 293 301 305 308 309 309 309 311 312 312 311
203 198 171 209 208 76 180 85 200 272 243 216 194 193 186 176 164 165 169 171 170 172 171 174 180 187 199 217 241 258 273 283 291 297 300 303 306 307 308 308 308 307 308 309
221 201 210 134 178 200 220 237 232 234 247 239 208 191 187 163 156 156 163 163 165 167 171 178 187 201 220 239 254 267 278 287 293 298 303 307 308 307 306 306 308 308 310 310
130 151 170 267 177 318 263 228 231 225 221 202 181 182 180 175 169 166 161 163 167 172 179 187 201 220 234 248 260 270 281 291 298 304 307 307 308 309 311 310 309 308 308 308
183 170 192 233 166 181 222 230 217 219 209 196 178 171 176 179 171 170 168 174 179 181 186 199 215 228 237 245 260 274 285 295 300 304 307 309 309 310 310 309 309 308 308 308
Height
1501 1503 1503 1502 1500 1497 1498 1508 1514 1515 1527 1527 1525 1523 1520 1523 1528 1529 1530 1531 1532 1534 1535 1534 1536 1537 1539 1540 1543 1546 1548 1551 1553 1554 1557 1559 1561 1564 1566 1567 1569 1570 1572 1573
1502 1497 1496 1499 1502 1504 1503 1511 1512 1526 1528 1529 1525 1522 1519 1521 1525 1526 1528 1530 1531 1532 1531 1530 1531 1533 1535 1536 1537 1541 1544 1548 1549 1549 1552 1555 1557 1559 1561 1563 1565 1567 1568 1569
1494 1494 1498 1502 1508 1508 1507 1507 1509 1511 1526 1529 1527 1518 1513 1521 1524 1526 1526 1528 1528 1529 1530 1529 1529 1529 1531 1531 1532 1535 1538 1542 1546 1547 1549 1551 1554 1555 1556 1558 1560 1562 1564 1565
1493 1499 1499 1503 1504 1504 1514 1511 1510 1519 1520 1522 1525 1516 1506 1509 1518 1522 1523 1525 1526 1527 1527 1527 1527 1527 1528 1529 1529 1529 1533 1536 1539 1543 1546 1546 1549 1552 1555 1555 1556 1558 1560 1561
1494 1498 1500 1502 1499 1505 1509 1514 1513 1516 1519 1525 1524 1527 1497 1511 1515 1518 1521 1523 1525 1526 1527 1527 1526 1526 1528 1528 1527 1527 1529 1532 1534 1539 1542 1544 1545 1548 1550 1552 1553 1554 1555 1556
1496 1499 1497 1497 1504 1506 1514 1516 1521 1520 1523 1531 1513 1521 1498 1505 1505 1513 1521 1521 1526 1524 1526 1526 1526 1526 1528 1528 1529 1528 1529 1530 1533 1536 1539 1542 1543 1545 1548 1549 1550 1551 1553 1553
1495 1498 1501 1502 1507 1512 1507 1510 1526 1532 1535 1528 1531 1531 1501 1505 1507 1511 1517 1520 1524 1525 1528 1529 1528 1526 1528 1530 1529 1530 1532 1532 1534 1536 1538 1540 1541 1543 1545 1546 1547 1548 1548 1549
1488 1501 1497 1496 1493 1500 1504 1501 1510 1530 1530 1518 1546 1526 1501 1504 1511 1512 1517 1521 1523 1524 1527 1529 1528 1529 1529 1532 1532 1532 1533 1533 1535 1537 1539 1541 1542 1544 1545 1546 1547 1547 1548 1548
1477 1485 1493 1495 1496 1495 1504 1506 1502 1526 1551 1524 1512 1504 1505 1508 1511 1512 1517 1522 1523 1524 1526 1529 1530 1529 1530 1532 1533 1535 1536 1535 1537 1539 1540 1541 1543 1544 1546 1546 1547 1547 1546 1545
1467 1491 1498 1499 1497 1499 1495 1495 1512 1509 1531 1525 1507 1501 1484 1505 1505 1509 1513 1518 1521 1524 1525 1528 1529 1531 1533 1534 1533 1536 1537 1537 1539 1540 1541 1542 1544 1544 1546 1546 1545 1544 1545 1544
1466 1471 1502 1497 1492 1487 1500 1498 1498 1493 1501 1507 1505 1490 1474 1482 1491 1498 1506 1513 1517 1520 1524 1526 1529 1531 1532 1533 1534 1536 1537 1538 1540 1541 1541 1542 1543 1543 1544 1544 1543 1543 1542 1541
1469 1475 1491 1487 1493 1493 1487 1484 1490 1497 1507 1502 1506 1483 1482 1478 1487 1496 1503 1509 1516 1520 1521 1524 1527 1529 1531 1533 1533 1535 1536 1538 1540 1541 1541 1541 1542 1543 1542 1543 1543 1542 1541 1540
1464 1479 1495 1496 1492 1493 1488 1483 1479 1480 1496 1507 1502 1480 1485 1482 1485 1494 1500 1507 1512 1516 1520 1522 1523 1527 1530 1532 1534 1535 1536 1538 1540 1541 1541 1541 1542 1542 1541 1541 1541 1540 1539 1537
1458 1466 1464 1468 1459 1465 1483 1478 1482 1480 1493 1485 1484 1469 1485 1483 1485 1492 1499 1503 1508 1514 1518 1521 1522 1525 1528 1530 1531 1533 1535 1537 1539 1539 1540 1541 1541 1541 1540 1539 1539 1537 1535 1534
1456 1462 1461 1454 1454 1457 1460 1471 1478 1480 1469 1478 1464 1470 1467 1478 1482 1484 1490 1500 1504 1509 1514 1516 1518 1522 1525 1528 1530 1532 1534 1537 1538 1538 1539 1539 1541 1540 1538 1537 1536 1534 1532 1529
1455 1461 1455 1468 1461 1469 1468 1467 1468 1470 1466 1468 1460 1461 1459 1469 1479 1486 1488 1494 1498 1503 1508 1512 1515 1518 1522 1526 1528 1531 1533 1535 1536 1537 1538 1537 1537 1537 1535 1533 1532 1529 1527 1524
1453 1459 1465 1463 1473 1474 1475 1457 1458 1459 1459 1455 1459 1445 1462 1468 1471 1475 1481 1484 1490 1497 1502 1508 1512 1515 1519 1523 1526 1528 1531 1533 1534 1534 1534 1534 1534 1532 1531 1530 1527 1525 1522 1518
1452 1455 1461 1465 1474 1469 1438 1443 1441 1447 1445 1449 1447 1448 1454 1458 1463 1468 1473 1477 1484 1492 1498 1503 1508 1512 1516 1520 1523 1526 1528 1530 1530 1532 1532 1531 1529 1529 1527 1526 1523 1520 1517 1514
1444 1449 1461 1459 1465 1445 1432 1445 1446 1446 1437 1439 1437 1444 1450 1456 1463 1467 1473 1478 1483 1488 1494 1498 1504 1509 1513 1517 1520 1524 1526 1526 1527 1528 1528 1527 1527 1525 1523 1521 1518 1515 1512 1509
1448 1449 1449 1460 1451 1446 1423 1435 1440 1443 1436 1430 1435 1439 1445 1452 1460 1453 1463 1469 1475 1482 1490 1496 1502 1507 1511 1515 1518 1520 1522 1523 1524 1524 1524 1523 1521 1519 1518 1516 1513 1510 1506 1501
1442 1447 1443 1451 1446 1436 1432 1436 1439 1446 1428 1424 1425 1429 1436 1440 1440 1446 1454 1463 1470 1477 1485 1492 1498 1504 1509 1512 1515 1517 1518 1519 1520 1520 1519 1519 1517 1514 1512 1509 1508 1504 1499 1495
1429 1433 1436 1442 1442 1433 1431 1436 1434 1428 1425 1426 1429 1432 1436 1440 1443 1445 1450 1458 1466 1472 1481 1488 1495 1501 1505 1509 1511 1512 1514 1515 1515 1515 1514 1514 1511 1509 1507 1503 1500 1496 1492 1488
1426 1420 1426 1427 1422 1423 1425 1425 1425 1425 1427 1428 1429 1432 1435 1439 1442 1445 1450 1457 1464 1471 1478 1486 1493 1498 1502 1505 1507 1507 1508 1509 1509 1509 1509 1507 1505 1503 1501 1496 1492 1489 1486 1481
1426 1428 1425 1426 1419 1422 1424 1425 1426 1428 1427 1427 1429 1431 1435 1438 1444 1448 1451 1458 1466 1473 1479 1485 1490 1494 1498 1500 1502 1503 1504 1503 1503 1503 1501 1500 1498 1496 1494 1490 1486 1481 1477 1474
1421 1425 1425 1425 1424 1423 1422 1422 1425 1426 1427 1429 1430 1432 1435 1438 1444 1448 1454 1461 1467 1473 1478 1482 1486 1490 1493 1495 1497 1498 1498 1498 1497 1496 1494 1493 1491 1488 1485 1482 1479 1475 1472 1469
1417 1415 1417 1412 1414 1416 1418 1419 1422 1425 1428 1430 1430 1433 1436 1439 1442 1450 1455 1460 1465 1470 1474 1479 1482 1484 1487 1490 1491 1491 1492 1491 1490 1488 1487 1485 1484 1480 1477 1474 1471 1469 1464 1461